Theta_e
362 353 347 349 348 349 351 353 358 360 360 362 361 362 363 361 361 353 352 357 362 359
361 355 348 347 349 352 353 356 358 358 361 361 362 360 361 358 349 339 340 352 361 361
358 358 353 348 347 351 361 358 359 359 360 361 365 368 365 360 356 342 346 355 359 363
356 357 357 354 352 359 357 353 352 354 358 360 360 363 362 361 361 355 359 362 357 358
358 356 354 354 351 359 358 351 343 343 354 361 363 363 361 360 360 357 359 361 361 358
355 355 354 355 357 358 363 355 350 351 359 361 361 362 364 363 362 359 358 357 356 356
355 355 355 356 356 355 360 359 359 360 361 361 362 362 360 360 360 361 359 359 358 359
356 358 359 360 359 359 360 358 358 359 361 362 361 354 360 362 357 356 357 359 357 357
353 359 356 360 358 360 359 360 360 360 357 356 355 344 344 361 357 355 355 354 359 359
358 357 356 358 358 357 358 358 358 360 360 360 361 341 341 349 360 359 359 357 356 355
358 356 358 355 357 357 358 358 358 359 359 358 357 339 335 344 356 356 358 356 358 358
359 357 357 355 357 357 358 358 358 359 358 359 359 334 334 340 349 348 352 353 357 359
361 359 356 355 353 358 360 356 358 358 359 350 359 329 327 334 348 350 351 357 357 341
363 360 361 361 359 359 358 357 357 357 358 357 353 345 325 325 349 353 352 348 351 354
Wind_Speed
7 6 7 7 5 10 9 9 10 7 7 8 8 7 5 4 2 5 5 7 3 3
8 9 8 8 9 10 7 7 10 9 7 8 9 8 7 4 5 3 4 9 5 3
9 10 10 13 13 15 7 7 9 9 8 6 6 5 7 6 9 8 6 6 6 4
10 11 10 9 10 7 7 7 6 5 8 8 7 6 5 4 5 9 5 3 3 5
11 11 11 9 10 7 8 10 9 12 10 7 6 7 7 6 4 7 6 6 4 5
11 12 12 11 9 7 6 11 22 23 7 7 6 7 6 5 5 5 6 7 5 6
11 10 11 13 11 9 9 8 6 8 8 7 7 6 6 8 6 7 7 6 8 4
10 9 8 8 8 9 9 9 8 8 9 8 6 7 8 6 6 6 6 5 3 5
10 11 11 8 9 7 8 9 8 7 8 9 8 4 4 7 6 6 4 5 5 6
10 11 11 10 10 10 9 8 8 8 7 6 6 5 2 2 3 2 3 4 4 5
14 13 11 11 11 10 9 10 9 9 8 7 7 12 8 7 4 3 4 4 6 7
14 14 14 13 12 11 10 9 9 9 9 9 6 10 8 7 3 5 7 8 7 6
15 15 16 16 16 13 10 11 9 10 9 8 6 10 9 7 4 6 6 6 9 11
15 17 15 13 12 13 12 10 10 9 7 7 8 9 13 12 6 5 3 7 4 3
Wind_Direction
164 137 167 169 217 224 187 195 169 188 176 163 175 160 173 173 168 30 328 262 284 331
166 154 154 192 228 244 208 168 165 184 179 176 179 173 163 170 132 174 229 260 224 249
177 167 172 174 216 239 144 149 159 183 187 184 193 177 170 179 166 190 230 234 204 238
174 175 176 190 217 233 160 100 90 215 197 191 191 185 202 219 246 199 227 266 183 237
176 176 180 188 208 222 149 121 100 276 236 206 195 202 199 230 242 202 225 218 235 269
189 183 184 189 202 204 167 164 165 210 209 206 213 210 204 227 239 264 255 241 246 233
186 195 200 183 196 195 175 169 203 196 199 215 224 214 209 214 218 231 257 241 233 248
176 186 208 187 194 184 169 170 192 200 202 204 215 228 216 211 227 216 263 299 319 266
175 181 193 197 187 195 180 182 190 196 206 201 217 159 131 191 235 229 206 265 281 294
182 187 187 196 188 196 187 190 200 207 210 217 230 114 136 118 258 252 222 225 261 274
185 190 190 199 196 190 198 190 202 202 209 210 219 178 197 181 244 262 256 259 228 221
182 187 190 191 201 201 197 195 199 208 213 212 187 159 177 152 218 245 241 234 245 239
186 188 196 198 188 195 200 193 195 208 210 206 179 176 186 177 226 254 255 222 223 223
192 193 195 197 195 193 199 196 195 194 187 177 179 176 192 192 213 234 284 258 270 216